R/V Knorr Calliope CSV data file  (Time stamps are GMT)
Date, Time_GMT, Depth12, Depth35, Air_Temp, WXT5_Ta, WXT5_Pa, dec_lat, dec_lon, GPS_COG, GPS_SOG, Gyro, IMET_BPR, IMET_SWR, WXT5_Ri, WXT5_Rc, HRH, WXT5_Ua, WXT5_Dm, WXT5_Sm, SBE45C, SBE45S, SBE45T, Salinity, SSCND, Fluorometer, SSTMP, SSV, Wnd_Dir, TWD5, Wnd_Spd, TWS5, HdChkSum=3E
2009/04/07, 00:00:23, , , 26.52, 26.50, 1008.0, -0.7506570, -90.2950230, 270.50, 0.42, 121.70, 1007.71, 4.50, 0.0, 177.75, 80.90, 76.6, 330, 4.0, 55.62080, 34.38120, 28.2649, 34.3812, 55.6208, 882.50, 26.5640, 1537.42, 88.80, 88.0, 3.77, 4.2, 3E
2009/04/07, 00:01:22, , , 26.48, 26.50, 1008.0, -0.7506620, -90.2950380, 215.40, 0.50, 118.40, 1007.76, 4.00, 0.0, 177.75, 80.50, 77.7, 333, 4.0, 55.62650, 34.38170, 28.2696, 34.3817, 55.6265, 882.50, 26.5612, 1537.41, 92.00, 90.0, 3.72, 4.1, 3E
2009/04/07, 00:02:22, , , 26.57, 26.50, 1008.0, -0.7506700, -90.2950480, 198.90, 0.27, 115.90, 1007.82, 3.40, 0.0, 177.75, 80.87, 78.2, 339, 3.8, 55.62670, 34.38190, 28.2696, 34.3819, 55.6267, 882.20, 26.5624, 1537.41, 96.70, 94.2, 3.34, 3.7, 3E
2009/04/07, 00:03:22, , , 26.56, 26.50, 1008.1, -0.7506820, -90.2950470, 220.40, 0.35, 113.70, 1007.87, 2.80, 0.0, 177.75, 81.05, 78.4, 342, 3.6, 55.62350, 34.38240, 28.2657, 34.3824, 55.6235, 881.60, 26.5613, 1537.41, 97.50, 94.0, 3.24, 3.7, 3E
2009/04/07, 00:04:22, , , 26.64, 26.50, 1008.1, -0.7506870, -90.2950370, 36.50, 0.43, 111.20, 1007.91, 1.90, 0.0, 177.75, 82.03, 77.7, 345, 3.8, 55.60980, 34.38310, 28.2517, 34.3831, 55.6098, 881.20, 26.5590, 1537.41, 95.00, 95.9, 2.76, 3.3, 3E
2009/04/07, 00:05:22, , , 26.47, 26.50, 1008.1, -0.7506880, -90.2950300, 18.70, 0.62, 110.00, 1007.93, 1.70, 0.0, 177.75, 81.04, 76.9, 346, 3.2, 55.58970, 34.38460, 28.2304, 34.3846, 55.5897, 881.90, 26.5536, 1537.40, 87.90, 79.5, 3.38, 3.7, 3E
2009/04/07, 00:06:22, , , 26.51, 26.50, 1008.1, -0.7506980, -90.2950280, 83.70, 0.24, 110.60, 1007.77, 1.20, 0.0, 177.75, 81.13, 78.4, 344, 3.4, 55.56810, 34.38440, 28.2099, 34.3844, 55.5681, 884.30, 26.5490, 1537.39, 92.70, 87.7, 2.88, 3.4, 3E
2009/04/07, 00:07:22, , , 26.59, 26.50, 1008.1, -0.7507070, -90.2950350, 334.30, 0.12, 109.90, 1007.88, 0.90, 0.0, 177.75, 81.22, 78.1, 342, 3.3, 55.54680, 34.38420, 28.1899, 34.3842, 55.5468, 886.20, 26.5444, 1537.38, 91.70, 87.2, 2.99, 3.3, 3E
2009/04/07, 00:08:22, , , 26.57, 26.50, 1008.1, -0.7507150, -90.2950420, 221.60, 0.21, 109.80, 1007.90, 0.80, 0.0, 177.75, 81.76, 75.5, 338, 3.8, 55.53330, 34.38390, 28.1774, 34.3839, 55.5333, 887.50, 26.5471, 1537.38, 92.30, 84.8, 3.36, 4.0, 3E
2009/04/07, 00:09:22, , , 26.38, 26.50, 1008.1, -0.7507250, -90.2950570, 243.70, 0.66, 109.00, 1007.96, 0.60, 0.0, 177.75, 81.17, 77.8, 344, 3.5, 55.52980, 34.38350, 28.1746, 34.3835, 55.5298, 889.90, 26.5576, 1537.41, 93.30, 91.3, 2.73, 3.2, 3E
2009/04/07, 00:10:22, , , 26.57, 26.50, 1008.1, -0.7507150, -90.2950630, 346.70, 0.61, 107.20, 1007.96, 0.50, 0.0, 177.75, 80.10, 75.7, 345, 3.3, 55.52340, 34.38350, 28.1685, 34.3835, 55.5234, 889.20, 26.5717, 1537.44, 90.70, 84.3, 3.40, 3.5, 3E
2009/04/07, 00:11:22, , , 26.44, 26.50, 1008.2, -0.7507250, -90.2950670, 99.10, 0.21, 105.40, 1008.00, 0.30, 0.0, 177.75, 78.99, 75.6, 350, 3.9, 55.52370, 34.38310, 28.1693, 34.3831, 55.5237, 889.90, 26.5887, 1537.48, 94.90, 92.7, 3.18, 3.8, 3E
2009/04/07, 00:12:22, , , 26.47, 26.50, 1008.2, -0.7507350, -90.2950650, 159.40, 0.16, 103.00, 1007.97, 0.30, 0.0, 177.75, 77.95, 75.3, 350, 3.8, 55.51780, 34.38340, 28.1632, 34.3834, 55.5178, 890.50, 26.6014, 1537.51, 96.20, 88.7, 3.26, 3.7, 3E
2009/04/07, 00:13:22, , , 26.67, 26.60, 1008.2, -0.7507420, -90.2950580, 232.00, 0.28, 101.60, 1008.01, 0.00, 0.0, 177.75, 79.57, 77.0, 351, 3.8, 55.49740, 34.38430, 28.1425, 34.3843, 55.4974, 890.80, 26.6085, 1537.52, 96.20, 88.5, 3.27, 3.8, 3E
2009/04/07, 00:14:22, , , 26.57, 26.50, 1008.2, -0.7507450, -90.2950530, 18.20, 0.31, 99.70, 1008.01, -0.30, 0.0, 177.75, 78.95, 75.0, 359, 3.7, 55.47420, 34.38550, 28.1187, 34.3855, 55.4742, 890.80, 26.6136, 1537.54, 92.60, 92.8, 3.08, 3.9, 3E
2009/04/07, 00:15:22, , , 26.51, 26.50, 1008.2, -0.7507470, -90.2950500, 96.60, 0.27, 97.10, 1008.04, -0.60, 0.0, 177.75, 78.73, 75.5, 356, 3.4, 55.43610, 34.38670, 28.0804, 34.3867, 55.4361, 890.50, 26.6138, 1537.54, 93.70, 93.0, 3.37, 3.6, 3E
2009/04/07, 00:16:22, , , 26.59, 26.50, 1008.2, -0.7507480, -90.2950580, 307.20, 0.31, 94.90, 1008.00, -1.00, 0.0, 177.75, 79.53, 76.6, 2, 3.3, 55.39670, 34.38740, 28.0417, 34.3874, 55.3967, 889.60, 26.6129, 1537.54, 99.30, 89.9, 3.04, 3.1, 3E
2009/04/07, 00:17:22, , , 26.63, 26.50, 1008.3, -0.7507480, -90.2950700, 240.30, 0.41, 93.10, 1008.02, -1.10, 0.0, 177.75, 79.76, 76.8, 7, 2.9, 55.35540, 34.38780, 28.0016, 34.3878, 55.3554, 889.60, 26.6122, 1537.54, 99.40, 96.8, 2.93, 2.9, 3E
2009/04/07, 00:18:22, , , 26.59, 26.50, 1008.3, -0.7507420, -90.2950770, 26.00, 0.51, 90.70, 1008.14, -1.30, 0.0, 177.75, 80.12, 78.1, 2, 3.1, 55.31620, 34.38870, 27.9629, 34.3887, 55.3162, 890.50, 26.6073, 1537.53, 96.50, 87.9, 2.70, 3.0, 3E
2009/04/07, 00:19:22, , , 26.68, 26.60, 1008.3, -0.7507500, -90.2950750, 180.90, 0.38, 90.50, 1008.01, -1.20, 0.0, 177.75, 80.61, 79.2, 11, 3.1, 55.28210, 34.38910, 27.9296, 34.3891, 55.2821, 891.60, 26.6029, 1537.52, 102.80, 100.8, 2.53, 3.1, 3E
2009/04/07, 00:20:22, , , 26.64, 26.50, 1008.3, -0.7507520, -90.2950680, 355.60, 0.46, 89.00, 1007.96, -1.40, 0.0, 177.75, 80.62, 77.0, 9, 3.8, 55.25380, 34.38930, 27.9023, 34.3893, 55.2538, 891.00, 26.5963, 1537.50, 99.10, 92.4, 2.50, 3.8, 3E
2009/04/07, 00:21:22, , , 26.44, 26.50, 1008.3, -0.7507520, -90.2950580, 206.90, 0.31, 87.10, 1008.14, -1.20, 0.0, 177.75, 80.81, 77.0, 8, 3.4, 55.23220, 34.38870, 27.8823, 34.3887, 55.2322, 890.80, 26.5888, 1537.48, 114.40, 96.3, 3.12, 3.3, 3E
2009/04/07, 00:22:22, , , 26.46, 26.50, 1008.3, -0.7507430, -90.2950480, 22.10, 0.37, 86.40, 1008.14, -1.40, 0.0, 177.75, 80.42, 78.0, 12, 3.8, 55.21970, 34.38940, 27.8695, 34.3894, 55.2197, 891.00, 26.5818, 1537.47, 103.40, 92.9, 2.88, 3.7, 3E
2009/04/07, 00:23:22, , , 26.63, 26.50, 1008.3, -0.7507450, -90.2950380, 147.30, 0.37, 86.60, 1008.06, -1.30, 0.0, 177.75, 81.45, 79.0, 12, 3.2, 55.21590, 34.38860, 27.8668, 34.3886, 55.2159, 890.20, 26.5738, 1537.45, 107.60, 96.4, 2.97, 3.2, 3E
2009/04/07, 00:24:22, , , 26.61, 26.50, 1008.3, -0.7507430, -90.2950370, 175.30, 0.29, 86.30, 1008.07, -1.40, 0.0, 177.75, 81.81, 79.6, 7, 3.5, 55.21630, 34.38850, 27.8674, 34.3885, 55.2163, 889.90, 26.5654, 1537.43, 109.30, 93.5, 3.04, 3.5, 3E
2009/04/07, 00:25:22, , , 26.54, 26.50, 1008.3, -0.7507470, -90.2950430, 178.30, 0.64, 86.30, 1008.03, -1.20, 0.0, 177.75, 81.91, 79.1, 2, 3.6, 55.21400, 34.38870, 27.8649, 34.3887, 55.2140, 889.90, 26.5557, 1537.41, 105.30, 86.6, 2.96, 3.6, 3E
2009/04/07, 00:26:23, , , 26.51, 26.40, 1008.3, -0.7507430, -90.2950550, 223.70, 0.22, 85.70, 1008.01, -1.30, 0.0, 177.75, 82.49, 80.5, 1, 4.4, 55.21630, 34.38860, 27.8672, 34.3886, 55.2163, 890.50, 26.5431, 1537.38, 106.70, 92.2, 3.23, 4.2, 3E
2009/04/07, 00:27:22, , , 26.49, 26.40, 1008.4, -0.7507500, -90.2950630, 37.70, 0.39, 86.30, 1008.14, -1.30, 0.0, 177.75, 82.05, 78.1, 348, 3.9, 55.21830, 34.38860, 27.8690, 34.3886, 55.2183, 890.50, 26.5286, 1537.34, 82.90, 71.6, 3.75, 3.8, 3E
2009/04/07, 00:28:22, , , 26.37, 26.40, 1008.4, -0.7507580, -90.2950730, 30.60, 0.60, 88.60, 1008.13, -1.10, 0.0, 177.75, 81.54, 78.7, 350, 3.4, 55.21500, 34.38870, 27.8658, 34.3887, 55.2150, 891.60, 26.5081, 1537.30, 85.00, 76.6, 2.74, 2.8, 3E
2009/04/07, 00:29:22, , , 26.53, 26.50, 1008.4, -0.7507730, -90.2950820, 323.90, 0.25, 91.50, 1008.04, -1.10, 0.0, 177.75, 81.93, 79.0, 346, 3.7, 55.21530, 34.38760, 27.8676, 34.3876, 55.2153, 894.70, 26.4811, 1537.23, 81.70, 69.4, 2.89, 3.6, 3E
2009/04/07, 00:30:22, , , 26.50, 26.50, 1008.4, -0.7507870, -90.2950780, 213.00, 0.59, 94.00, 1008.14, -0.90, 0.0, 177.75, 81.30, 77.6, 344, 3.7, 55.22000, 34.38550, 27.8750, 34.3855, 55.2200, 898.00, 26.4495, 1537.16, 79.80, 71.2, 3.24, 3.6, 3E
2009/04/07, 00:31:22, , , 26.48, 26.50, 1008.4, -0.7507920, -90.2950750, 267.20, 0.46, 96.00, 1008.17, -0.70, 0.0, 177.75, 81.07, 77.9, 344, 3.3, 55.22790, 34.38380, 27.8849, 34.3838, 55.2279, 901.70, 26.4154, 1537.08, 84.50, 79.1, 3.02, 3.1, 3E
2009/04/07, 00:32:22, , , 26.55, 26.50, 1008.4, -0.7508030, -90.2950680, 7.50, 0.44, 96.20, 1008.24, -0.90, 0.0, 177.75, 81.05, 78.4, 347, 3.2, 55.24060, 34.38210, 27.8994, 34.3821, 55.2406, 905.10, 26.3893, 1537.01, 70.60, 73.2, 3.02, 3.4, 3E
2009/04/07, 00:33:22, , , 26.62, 26.50, 1008.5, -0.7508120, -90.2950680, 238.00, 0.82, 94.80, 1008.28, -1.00, 0.0, 177.75, 81.58, 78.8, 351, 3.1, 55.25700, 34.38060, 27.9172, 34.3806, 55.2570, 905.70, 26.3794, 1536.99, 94.20, 85.8, 2.54, 3.0, 3E
2009/04/07, 00:34:22, , , 26.64, 26.50, 1008.5, -0.7508120, -90.2950680, 217.10, 0.33, 92.40, 1008.28, -0.90, 0.0, 177.75, 82.18, 79.4, 350, 3.6, 55.26900, 34.38060, 27.9288, 34.3806, 55.2690, 905.10, 26.3904, 1537.02, 84.50, 78.4, 3.02, 3.7, 3E
2009/04/07, 00:35:22, , , 26.57, 26.50, 1008.5, -0.7508100, -90.2950730, 177.20, 0.46, 89.80, 1008.28, -0.90, 0.0, 177.75, 81.97, 79.1, 347, 3.5, 55.28130, 34.38110, 27.9398, 34.3811, 55.2813, 903.60, 26.4066, 1537.05, 80.30, 73.2, 2.98, 3.4, 3E
2009/04/07, 00:36:22, , , 26.58, 26.50, 1008.6, -0.7508220, -90.2950800, 212.60, 0.95, 89.20, 1008.42, -1.10, 0.0, 177.75, 82.45, 78.4, 334, 3.6, 55.28900, 34.38130, 27.9469, 34.3813, 55.2890, 901.70, 26.4204, 1537.09, 79.10, 66.2, 2.68, 3.4, 3E
2009/04/07, 00:37:22, , , 26.51, 26.50, 1008.6, -0.7508320, -90.2950800, 96.80, 0.27, 90.40, 1008.48, -0.70, 0.0, 177.75, 81.78, 78.6, 327, 3.8, 55.29070, 34.38250, 27.9468, 34.3825, 55.2907, 900.60, 26.4122, 1537.07, 60.60, 55.0, 2.81, 3.8, 3E
2009/04/07, 00:38:22, , , 26.47, 26.50, 1008.6, -0.7508550, -90.2950780, 26.10, 0.43, 90.40, 1008.36, -0.80, 0.0, 177.75, 81.34, 78.1, 326, 4.2, 55.29740, 34.38270, 27.9531, 34.3827, 55.2974, 900.80, 26.3890, 1537.01, 41.30, 46.2, 3.34, 3.9, 3E
2009/04/07, 00:39:22, , , 26.49, 26.50, 1008.6, -0.7508880, -90.2950770, 33.30, 0.38, 89.50, 1008.53, -0.70, 0.0, 177.75, 81.16, 78.0, 335, 3.8, 55.29450, 34.38360, 27.9490, 34.3836, 55.2945, 900.80, 26.3526, 1536.93, 48.40, 52.9, 3.53, 4.2, 3E
2009/04/07, 00:40:23, , , 26.58, 26.50, 1008.6, -0.7509120, -90.2950730, 297.30, 0.33, 88.50, 1008.53, -0.60, 0.0, 177.75, 81.38, 78.2, 335, 3.5, 55.29330, 34.38470, 27.9464, 34.3847, 55.2933, 899.30, 26.3185, 1536.85, 64.40, 60.6, 3.22, 3.7, 3E
2009/04/07, 00:41:22, , , 26.58, 26.50, 1008.7, -0.7509220, -90.2950650, 162.00, 0.20, 86.10, 1008.51, -0.90, 0.0, 177.75, 81.22, 78.6, 352, 3.5, 55.28740, 34.38520, 27.9400, 34.3852, 55.2874, 900.30, 26.2880, 1536.78, 67.10, 73.5, 3.05, 3.4, 3E
2009/04/07, 00:42:22, , , 26.62, 26.50, 1008.7, -0.7509370, -90.2950630, 212.70, 0.28, 83.10, 1008.49, -0.90, 0.0, 177.75, 81.79, 78.8, 336, 3.4, 55.27810, 34.38560, 27.9306, 34.3856, 55.2781, 900.00, 26.2897, 1536.79, 64.80, 58.1, 3.06, 4.5, 3E
2009/04/07, 00:43:22, , , 26.65, 26.50, 1008.7, -0.7509380, -90.2950620, 28.10, 0.47, 82.20, 1008.56, -1.00, 0.0, 177.75, 82.06, 78.1, 351, 4.0, 55.26790, 34.38610, 27.9202, 34.3861, 55.2679, 902.70, 26.3029, 1536.82, 74.30, 67.4, 3.31, 3.9, 3E
2009/04/07, 00:44:22, , , 26.51, 26.50, 1008.7, -0.7509500, -90.2950700, 327.50, 0.59, 79.70, 1008.54, -0.90, 0.0, 177.75, 81.80, 78.8, 349, 3.9, 55.25510, 34.38580, 27.9083, 34.3858, 55.2551, 903.00, 26.3099, 1536.83, 63.50, 60.3, 3.42, 4.1, 3E
2009/04/07, 00:45:22, , , 26.50, 26.50, 1008.8, -0.7509630, -90.2950830, 192.00, 0.35, 77.50, 1008.68, -0.60, 0.0, 177.75, 81.06, 77.5, 349, 3.9, 55.24200, 34.38570, 27.8959, 34.3857, 55.2420, 904.00, 26.3065, 1536.83, 81.10, 68.5, 3.33, 3.8, 3E
2009/04/07, 00:46:22, , , 26.47, 26.50, 1008.8, -0.7509770, -90.2950900, 354.60, 0.39, 75.80, 1008.49, -0.90, 0.0, 177.75, 81.22, 77.0, 357, 3.7, 55.22950, 34.38700, 27.8821, 34.3870, 55.2295, 904.10, 26.3062, 1536.83, 62.50, 63.9, 3.61, 3.7, 3E
2009/04/07, 00:47:22, , , 26.46, 26.50, 1008.8, -0.7509920, -90.2950880, 182.40, 0.42, 72.40, 1008.51, -0.70, 0.0, 177.75, 80.65, 77.1, 0, 3.6, 55.21320, 34.38710, 27.8663, 34.3871, 55.2132, 910.00, 26.3017, 1536.82, 72.40, 67.9, 3.27, 3.7, 3E
2009/04/07, 00:48:23, , , 26.50, 26.50, 1008.8, -0.7509970, -90.2950800, 301.70, 0.42, 69.20, 1008.66, -0.70, 0.0, 177.75, 80.48, 77.3, 358, 3.5, 55.19560, 34.38830, 27.8477, 34.3883, 55.1956, 902.40, 26.3050, 1536.83, 73.70, 65.7, 3.03, 3.5, 3E
2009/04/07, 00:49:23, , , 26.58, 26.50, 1008.9, -0.7510050, -90.2950670, 61.90, 0.12, 65.90, 1008.67, -0.70, 0.0, 177.75, 80.61, 77.8, 0, 3.7, 55.17900, 34.38990, 27.8298, 34.3899, 55.1790, 900.80, 26.3168, 1536.85, 67.80, 60.8, 3.12, 3.6, 3E
2009/04/07, 00:50:22, , , 26.59, 26.50, 1009.0, -0.7510130, -90.2950570, 256.30, 0.22, 62.60, 1008.79, -0.70, 0.0, 177.75, 80.53, 78.1, 0, 2.6, 55.15820, 34.39150, 27.8076, 34.3915, 55.1582, 898.70, 26.3286, 1536.88, 66.00, 58.5, 3.19, 2.9, 3E
2009/04/07, 00:51:23, , , 26.65, 26.50, 1009.0, -0.7510180, -90.2950480, 139.40, 0.54, 58.60, 1008.79, -0.80, 0.0, 177.75, 80.95, 77.9, 17, 3.6, 55.13590, 34.39360, 27.7832, 34.3936, 55.1359, 897.70, 26.3412, 1536.91, 70.80, 72.6, 2.66, 3.4, 3E
2009/04/07, 00:52:22, , , 26.57, 26.50, 1009.0, -0.7510180, -90.2950500, 298.80, 0.40, 54.50, 1008.85, -0.50, 0.0, 177.75, 80.52, 77.4, 17, 3.0, 55.11080, 34.39660, 27.7552, 34.3966, 55.1108, 896.60, 26.3536, 1536.95, 68.10, 64.2, 2.73, 2.9, 3E
2009/04/07, 00:53:22, , , 26.59, 26.60, 1009.0, -0.7510220, -90.2950430, 334.40, 0.59, 52.70, 1008.85, -0.60, 0.0, 177.75, 80.66, 77.7, 21, 2.8, 55.08530, 34.39750, 27.7293, 34.3975, 55.0853, 896.60, 26.3711, 1536.99, 76.10, 52.3, 2.72, 3.0, 3E
2009/04/07, 00:54:22, , , 26.62, 26.60, 1009.0, -0.7510300, -90.2950280, 7.10, 0.27, 52.20, 1008.85, -0.40, 0.0, 177.75, 80.42, 77.3, 34, 3.3, 55.05760, 34.39680, 27.7038, 34.3968, 55.0576, 899.60, 26.3889, 1537.03, 80.60, 85.5, 2.69, 3.0, 3E
2009/04/07, 00:55:22, , , 26.59, 26.60, 1009.0, -0.7510320, -90.2950220, 308.20, 0.29, 49.30, 1008.77, -0.50, 0.0, 177.75, 80.58, 78.0, 36, 3.3, 55.04110, 34.39470, 27.6909, 34.3947, 55.0411, 904.00, 26.3990, 1537.05, 85.20, 79.0, 2.68, 3.2, 3E
2009/04/07, 00:56:22, , , 26.63, 26.50, 1009.0, -0.7510300, -90.2950200, 104.50, 0.11, 46.60, 1008.82, -0.50, 0.0, 177.75, 81.27, 77.2, 28, 3.8, 55.03820, 34.39180, 27.6920, 34.3918, 55.0382, 907.30, 26.4071, 1537.07, 91.20, 68.4, 2.85, 3.8, 3E
2009/04/07, 00:57:22, , , 26.56, 26.50, 1009.0, -0.7510270, -90.2950230, 19.00, 0.25, 44.90, 1008.84, -0.50, 0.0, 177.75, 80.77, 76.8, 33, 4.3, 55.04510, 34.39060, 27.7002, 34.3906, 55.0451, 906.70, 26.4186, 1537.09, 84.00, 73.6, 3.15, 4.2, 3E
2009/04/07, 00:58:22, , , 26.51, 26.50, 1009.0, -0.7510230, -90.2950270, 90.00, 0.47, 44.80, 1008.85, -0.50, 0.0, 177.75, 80.19, 76.9, 31, 4.1, 55.05290, 34.39140, 27.7067, 34.3914, 55.0529, 903.30, 26.4333, 1537.13, 80.10, 70.1, 3.52, 3.9, 3E
2009/04/07, 00:59:22, , , 26.51, 26.50, 1009.0, -0.7510200, -90.2950330, 325.60, 0.15, 46.10, 1008.86, -0.40, 0.0, 177.75, 79.72, 75.8, 36, 3.9, 55.05860, 34.39500, 27.7073, 34.3950, 55.0586, 897.60, 26.4435, 1537.15, 84.80, 77.4, 3.70, 3.9, 3E
2009/04/07, 01:00:23, , , 26.49, 26.50, 1009.0, -0.7510180, -90.2950370, 110.70, 0.42, 47.90, 1008.80, -0.50, 0.0, 177.75, 79.32, 76.1, 33, 3.7, 55.04500, 34.39950, 27.6880, 34.3995, 55.0450, 893.90, 26.4473, 1537.17, 95.70, 80.9, 3.82, 3.8, 3E
2009/04/07, 01:01:22, , , 26.58, 26.50, 1009.0, -0.7510120, -90.2950400, 125.50, 0.63, 49.90, 1008.84, -0.60, 0.0, 177.75, 79.58, 77.0, 28, 3.2, 55.01950, 34.40360, 27.6580, 34.4036, 55.0195, 891.60, 26.4442, 1537.16, 96.50, 78.3, 3.56, 3.2, 3E
2009/04/07, 01:02:22, , , 26.65, 26.50, 1009.0, -0.7510050, -90.2950430, 55.10, 0.08, 50.60, 1008.91, -0.30, 0.0, 177.75, 79.99, 77.3, 21, 4.3, 54.98900, 34.40560, 27.6260, 34.4056, 54.9890, 893.60, 26.4376, 1537.15, 92.70, 77.8, 3.32, 4.0, 3E
2009/04/07, 01:03:22, , , 26.61, 26.50, 1009.1, -0.7509970, -90.2950450, 85.80, 0.52, 50.10, 1008.91, -0.50, 0.0, 177.75, 80.08, 76.7, 24, 4.6, 54.95880, 34.40430, 27.5988, 34.4043, 54.9588, 898.00, 26.4297, 1537.13, 87.20, 67.7, 3.50, 4.4, 3E
2009/04/07, 01:04:22, , , 26.55, 26.50, 1009.1, -0.7509880, -90.2950570, 256.40, 0.37, 50.00, 1008.91, -0.50, 0.0, 177.75, 79.82, 76.6, 15, 4.2, 54.93890, 34.40140, 27.5837, 34.4014, 54.9389, 903.30, 26.4249, 1537.12, 81.00, 62.0, 3.93, 4.4, 3E
2009/04/07, 01:05:23, , , 26.57, 26.50, 1009.1, -0.7509870, -90.2950580, 288.80, 0.40, 52.60, 1008.91, -0.30, 0.0, 177.75, 79.96, 76.5, 12, 3.7, 54.93650, 34.39900, 27.5847, 34.3990, 54.9365, 904.00, 26.4244, 1537.11, 77.80, 56.2, 3.75, 3.7, 3E
2009/04/07, 01:06:22, , , 26.57, 26.50, 1009.1, -0.7509880, -90.2950520, 324.90, 0.28, 55.50, 1008.87, -0.50, 0.0, 177.75, 79.83, 76.9, 4, 3.4, 54.93590, 34.39840, 27.5850, 34.3984, 54.9359, 902.70, 26.4146, 1537.09, 71.20, 54.9, 3.13, 2.9, 3E
2009/04/07, 01:07:22, , , 26.60, 26.60, 1009.2, -0.7509830, -90.2950500, 322.80, 0.86, 56.30, 1008.91, -0.30, 0.0, 177.75, 79.84, 76.9, 6, 3.4, 54.93310, 34.39850, 27.5820, 34.3985, 54.9331, 901.10, 26.3714, 1536.99, 63.00, 52.4, 2.73, 3.3, 3E
2009/04/07, 01:08:23, , , 26.60, 26.60, 1009.1, -0.7509850, -90.2950450, 307.90, 0.23, 57.30, 1008.93, -0.30, 0.0, 177.75, 79.96, 77.1, 2, 3.8, 54.93330, 34.39900, 27.5815, 34.3990, 54.9333, 901.10, 26.3429, 1536.92, 68.00, 57.5, 2.97, 3.9, 3E
2009/04/07, 01:09:23, , , 26.60, 26.60, 1009.2, -0.7509820, -90.2950430, 131.20, 0.29, 59.50, 1008.93, -0.40, 0.0, 177.75, 79.95, 77.2, 11, 3.7, 54.93280, 34.39750, 27.5830, 34.3975, 54.9328, 903.00, 26.3338, 1536.90, 70.90, 68.8, 2.97, 3.7, 3E
2009/04/07, 01:10:22, , , 26.59, 26.50, 1009.2, -0.7509870, -90.2950450, 164.20, 0.54, 60.80, 1008.98, -0.60, 0.0, 177.75, 80.06, 77.5, 359, 3.2, 54.93260, 34.39540, 27.5858, 34.3954, 54.9326, 905.10, 26.3063, 1536.84, 72.60, 51.4, 2.78, 3.1, 3E
2009/04/07, 01:11:22, , , 26.62, 26.60, 1009.2, -0.7509780, -90.2950500, 172.10, 0.36, 61.80, 1008.98, -0.70, 0.0, 177.75, 80.04, 77.4, 354, 3.4, 54.94550, 34.39330, 27.6011, 34.3933, 54.9455, 906.40, 26.2698, 1536.75, 62.60, 56.2, 3.09, 3.5, 3E
2009/04/07, 01:12:22, , , 26.61, 26.60, 1009.2, -0.7509770, -90.2950570, 181.40, 0.34, 63.20, 1008.97, -0.60, 0.0, 177.75, 80.02, 76.3, 351, 3.3, 54.95690, 34.38970, 27.6169, 34.3897, 54.9569, 907.80, 26.2640, 1536.73, 63.50, 54.1, 2.98, 3.3, 3E
2009/04/07, 01:13:22, , , 26.58, 26.50, 1009.2, -0.7509850, -90.2950630, 177.60, 0.71, 65.40, 1008.89, -0.60, 0.0, 177.75, 80.19, 76.6, 347, 4.0, 54.97390, 34.38800, 27.6355, 34.3880, 54.9739, 907.80, 26.2622, 1536.73, 54.10, 45.5, 3.18, 3.9, 3E
2009/04/07, 01:14:22, , , 26.57, 26.50, 1009.2, -0.7509850, -90.2950720, 305.10, 0.35, 67.30, 1009.01, -0.60, 0.0, 177.75, 79.78, 76.6, 339, 3.6, 54.98930, 34.38580, 27.6533, 34.3858, 54.9893, 908.10, 26.2291, 1536.65, 62.30, 41.7, 3.34, 3.8, 3E
2009/04/07, 01:15:23, , , 26.56, 26.50, 1009.3, -0.7509850, -90.2950730, 283.20, 0.14, 70.10, 1009.08, -0.70, 0.0, 177.75, 79.84, 77.2, 350, 3.4, 55.00950, 34.38460, 27.6743, 34.3846, 55.0095, 907.50, 26.1839, 1536.54, 59.60, 64.3, 3.15, 3.4, 3E
2009/04/07, 01:16:22, , , 26.58, 26.50, 1009.3, -0.7509900, -90.2950680, 298.30, 0.27, 71.30, 1009.00, -0.40, 0.0, 177.75, 79.78, 76.2, 341, 4.4, 55.03080, 34.38370, 27.6960, 34.3837, 55.0308, 907.00, 26.1415, 1536.44, 66.10, 46.7, 2.91, 4.6, 3E
2009/04/07, 01:17:22, , , 26.55, 26.50, 1009.3, -0.7509980, -90.2950620, 351.00, 0.18, 72.70, 1009.10, -0.70, 0.0, 177.75, 79.56, 76.6, 355, 3.9, 55.04190, 34.38340, 27.7071, 34.3834, 55.0419, 906.00, 26.1006, 1536.34, 57.10, 62.0, 3.84, 3.8, 3E
2009/04/07, 01:18:22, , , 26.62, 26.50, 1009.3, -0.7510020, -90.2950570, 207.20, 0.20, 72.80, 1009.04, -0.60, 0.0, 177.75, 80.09, 77.1, 356, 3.7, 55.05680, 34.38310, 27.7218, 34.3831, 55.0568, 906.00, 26.0581, 1536.24, 66.20, 69.9, 3.37, 3.9, 3E
2009/04/07, 01:19:22, , , 26.57, 26.50, 1009.3, -0.7510000, -90.2950520, 157.50, 0.33, 71.20, 1009.10, -0.40, 0.0, 177.75, 79.93, 76.7, 355, 4.0, 55.06690, 34.38220, 27.7326, 34.3822, 55.0669, 905.70, 26.0466, 1536.22, 65.30, 61.1, 3.21, 4.2, 3E
2009/04/07, 01:20:22, , , 26.56, 26.50, 1009.3, -0.7509900, -90.2950550, 149.60, 0.38, 69.40, 1009.12, -0.80, 0.0, 177.75, 79.94, 77.3, 4, 3.7, 55.08180, 34.38170, 27.7476, 34.3817, 55.0818, 905.40, 26.0504, 1536.22, 73.10, 73.2, 3.14, 3.6, 3E
2009/04/07, 01:21:23, , , 26.60, 26.50, 1009.3, -0.7509800, -90.2950600, 56.30, 0.38, 68.10, 1009.17, -0.60, 0.0, 177.75, 79.97, 76.4, 9, 3.4, 55.09000, 34.38200, 27.7551, 34.3820, 55.0900, 903.60, 26.0793, 1536.29, 68.60, 66.0, 3.25, 3.4, 3E
2009/04/07, 01:22:22, , , 26.55, 26.50, 1009.3, -0.7509680, -90.2950700, 319.80, 0.88, 67.70, 1009.11, -0.50, 0.0, 177.75, 80.21, 76.8, 4, 4.3, 55.09180, 34.38180, 27.7572, 34.3818, 55.0918, 901.70, 26.1222, 1536.39, 75.60, 65.8, 3.17, 4.4, 3E
2009/04/07, 01:23:22, , , 26.57, 26.50, 1009.3, -0.7509700, -90.2950830, 198.80, 0.49, 66.70, 1009.11, -0.50, 0.0, 177.75, 79.97, 77.0, 2, 4.5, 55.08740, 34.38260, 27.7517, 34.3826, 55.0874, 899.30, 26.1475, 1536.45, 85.70, 68.3, 3.74, 4.5, 3E
2009/04/07, 01:24:22, , , 26.59, 26.50, 1009.4, -0.7509650, -90.2950930, 15.30, 0.34, 66.10, 1009.15, -0.70, 0.0, 177.75, 80.45, 76.8, 359, 3.8, 55.07780, 34.38370, 27.7411, 34.3837, 55.0778, 898.00, 26.1670, 1536.50, 81.30, 62.9, 3.75, 3.7, 3E
2009/04/07, 01:25:23, , , 26.56, 26.50, 1009.3, -0.7509580, -90.2950980, 335.60, 0.49, 66.30, 1009.14, -0.60, 0.0, 177.75, 79.79, 75.8, 4, 4.6, 55.06400, 34.38380, 27.7277, 34.3838, 55.0640, 898.70, 26.1673, 1536.50, 64.60, 62.4, 3.34, 4.6, 3E
2009/04/07, 01:26:23, , , 26.49, 26.50, 1009.4, -0.7509520, -90.2950930, 305.90, 0.51, 67.40, 1009.16, -0.50, 0.0, 177.75, 79.11, 75.6, 7, 4.1, 55.05250, 34.38420, 27.7162, 34.3842, 55.0525, 900.30, 26.1396, 1536.44, 80.60, 73.2, 4.24, 4.3, 3E
2009/04/07, 01:27:22, , , 26.55, 26.50, 1009.4, -0.7509420, -90.2950830, 130.80, 0.11, 67.60, 1009.17, -0.50, 0.0, 177.75, 79.08, 76.2, 8, 4.1, 55.04050, 34.38730, 27.7004, 34.3873, 55.0405, 898.40, 26.0952, 1536.33, 84.00, 74.7, 3.54, 4.2, 3E
2009/04/07, 01:28:23, , , 26.55, 26.50, 1009.3, -0.7509330, -90.2950700, 129.90, 0.42, 68.70, 1009.17, -0.40, 0.0, 177.75, 78.69, 75.8, 0, 3.2, 55.01820, 34.39230, 27.6721, 34.3923, 55.0182, 893.90, 26.0402, 1536.21, 85.60, 67.9, 3.42, 3.2, 3E
2009/04/07, 01:29:22, , , 26.62, 26.50, 1009.4, -0.7509270, -90.2950570, 299.60, 0.21, 71.00, 1009.30, -0.40, 0.0, 177.75, 79.31, 76.5, 1, 3.2, 54.98090, 34.39530, 27.6322, 34.3953, 54.9809, 893.90, 25.9836, 1536.08, 86.80, 77.1, 3.15, 3.1, 3E
2009/04/07, 01:30:22, , , 26.61, 26.60, 1009.4, -0.7509230, -90.2950430, 122.70, 0.29, 73.60, 1009.15, -0.30, 0.0, 177.75, 79.18, 76.5, 1, 3.6, 54.94360, 34.39620, 27.5952, 34.3962, 54.9436, 895.30, 25.9215, 1535.94, 83.80, 68.8, 2.62, 3.3, 3E
2009/04/07, 01:31:22, , , 26.65, 26.60, 1009.4, -0.7509220, -90.2950420, 0.00, 0.25, 73.70, 1009.14, -0.60, 0.0, 177.75, 79.53, 78.3, 3, 3.9, 54.90760, 34.39820, 27.5580, 34.3982, 54.9076, 892.30, 25.8549, 1535.78, 84.50, 76.0, 2.90, 3.9, 3E
2009/04/07, 01:32:22, , , 26.62, 26.60, 1009.4, -0.7509230, -90.2950520, 51.00, 0.22, 72.20, 1009.15, -0.50, 0.0, 177.75, 79.68, 76.4, 358, 3.6, 54.87680, 34.40020, 27.5257, 34.4002, 54.8768, 891.60, 25.7857, 1535.62, 80.70, 65.3, 2.98, 3.6, 3E
2009/04/07, 01:33:23, , , 26.59, 26.50, 1009.4, -0.7509330, -90.2950670, 188.80, 0.29, 71.00, 1009.23, -0.40, 0.0, 177.75, 79.81, 77.1, 1, 3.9, 54.84610, 34.40050, 27.4958, 34.4005, 54.8461, 893.90, 25.7473, 1535.53, 74.20, 69.2, 3.54, 4.1, 3E
2009/04/07, 01:34:22, , , 26.62, 26.50, 1009.4, -0.7509420, -90.2950870, 305.10, 0.54, 69.40, 1009.17, -0.50, 0.0, 177.75, 80.04, 76.9, 1, 3.5, 54.82390, 34.40060, 27.4743, 34.4006, 54.8239, 895.30, 25.7193, 1535.47, 80.20, 72.0, 3.27, 3.6, 3E
2009/04/07, 01:35:22, , , 26.59, 26.50, 1009.4, -0.7509480, -90.2951000, 332.60, 0.35, 67.90, 1009.22, -0.80, 0.0, 177.75, 80.07, 76.8, 0, 3.7, 54.80700, 34.40370, 27.4539, 34.4037, 54.8070, 892.60, 25.6937, 1535.41, 72.40, 63.0, 3.17, 3.7, 3E